Location: Newark
(9.4667°S, 159.8167°E)
Time: 23:29:51
(UTC+00:00)

Courier 1B Rocket - Pass Details

Date: 21 November 2019
Orbit: 920 x 1202 km, 28.2° (Epoch: 14 December)

Event Time Altitude Azimuth Distance (km) Brightness Sun altitude
Rises 18:58:04 0° 228° (SW) 3,717 7.8 1.2°
Reaches altitude 10° 19:01:42 10° 210° (SSW) 2,717 7.3 2.1°
Maximum altitude 19:06:07 19° 167° (SSE) 2,107 7.3 3.1°
Drops below altitude 10° 19:10:24 10° 124° (SE) 2,630 9.2 4.1°
Sets 19:13:50 0° 106° (ESE) 3,556 10.9 4.9°
